This demonstration page uses our WeatherBlox Daily Observations layout. Learn more.

Left ArrowRight Arrow

39.51506, -84.39828

Hourly Observations for May 22, 2015

Temp ( °F °C ) Dew Point ( °F °C ) Humidity (%) Winds ( mph kmh ) Pressure ( in mb ) Visibility ( mi km ) Precip ( " mm )
12:15 am 00:15 Clear 48 8.7 43 6 83 83 SW 5 7 30.15 1021 10 16 0.00 0.00
12:35 am 00:35 Clear 49 9.6 44 6.5 81 81 SW 3 6 30.15 1021 10 16 0.00 0.00
12:55 am 00:55 Clear 49 9.3 44 6.5 83 83 SW 5 7 30.15 1021 10 16 0.00 0.00
1:15 am 01:15 Clear 48 8.7 43 5.9 83 83 SW 5 7 30.15 1021 10 16 0.00 0.00
1:35 am 01:35 Clear 47 8.2 42 5.5 83 83 SW 6 9 30.12 1020 10 16 0.00 0.00
1:55 am 01:55 Clear 47 8.2 42 5.6 84 84 SW 6 9 30.12 1020 10 16 0.00 0.00
2:15 am 02:15 Clear 47 8.2 42 5.6 84 84 SSW 6 9 30.12 1020 10 16 0.00 0.00
2:35 am 02:35 Clear 47 8.2 42 5.5 83 83 SSW 5 7 30.15 1021 10 16 0.00 0.00
2:55 am 02:55 Clear 47 8.2 42 5.5 83 83 SSW 5 7 30.15 1021 10 16 0.00 0.00
3:15 am 03:15 Clear 47 8.2 42 5.8 85 85 SSW 5 7 30.12 1020 10 16 0.00 0.00
3:35 am 03:35 Clear 47 8.2 42 5.8 85 85 SSW 3 6 30.12 1020 10 16 0.00 0.00
3:55 am 03:55 Clear 43 6.3 40 4.2 87 87 Calm 30.12 1020 10 16 0.00 0.00
4:15 am 04:15 Mostly Cloudy with Mist and Fog 43 6 39 4.1 88 88 Calm 30.12 1020 2 2 0.00 0.00
4:35 am 04:35 Clear with Mist and Fog 42 5.7 39 3.9 88 88 Calm 30.15 1021 5 8 0.00 0.00
4:55 am 04:55 Clear with Mist and Fog 42 5.5 39 3.8 89 89 Calm 30.15 1021 4 6 0.00 0.00
5:15 am 05:15 Clear with Mist and Fog 42 5.8 39 4.1 89 89 WSW 3 6 30.15 1021 5 8 0.00 0.00
5:35 am 05:35 Clear with Mist and Fog 42 5.7 39 4.1 90 90 Calm 30.15 1021 5 8 0.00 0.00
5:55 am 05:55 Clear with Mist and Fog 41 5 38 3.3 89 89 SW 5 7 30.15 1021 5 8 0.00 0.00
6:15 am 06:15 Clear with Mist and Fog 42 5.5 39 3.7 88 88 SW 6 9 30.18 1022 5 8 0.00 0.00
6:35 am 06:35 Sunny 42 5.5 39 3.7 88 88 SW 5 7 30.18 1022 7 11 0.00 0.00
6:55 am 06:55 Sunny 43 6.1 40 4.5 90 90 SW 5 7 30.18 1022 7 11 0.00 0.00
7:15 am 07:15 Sunny 47 8.1 44 6.4 89 89 SW 3 6 30.18 1022 10 16 0.00 0.00
7:35 am 07:35 Sunny 49 9.6 46 8 90 90 SW 6 9 30.21 1023 10 16 0.00 0.00
7:55 am 07:55 Sunny 49 9.6 45 7.4 86 86 SW 5 7 30.21 1023 10 16 0.00 0.00
8:15 am 08:15 Sunny 51 10.5 46 7.6 82 82 SW 6 9 30.21 1023 10 16 0.00 0.00
8:35 am 08:35 Sunny 55 12.5 48 8.7 78 78 SW 6 9 30.21 1023 10 16 0.00 0.00
8:55 am 08:55 Sunny 55 12.5 47 8.1 75 75 SW 5 7 30.21 1023 10 16 0.00 0.00
9:15 am 09:15 Sunny 57 13.8 47 8.4 70 70 SW 6 9 30.21 1023 10 16 0.00 0.00
9:35 am 09:35 Sunny 57 13.8 46 7.7 67 67 SSW 7 11 30.21 1023 10 16 0.00 0.00
9:55 am 09:55 Sunny 60 15.3 47 8.4 64 64 WSW 6 9 30.21 1023 10 16 0.00 0.00
10:15 am 10:15 Sunny 62 16.5 47 8.2 58 58 SW 8 13 30.21 1023 10 16 0.00 0.00
10:35 am 10:35 Sunny 63 17.2 46 8 55 55 SW 8 13 30.21 1023 10 16 0.00 0.00
10:55 am 10:55 Sunny 67 19.6 50 9.8 53 53 WSW 10 17 30.18 1022 10 16 0.00 0.00
11:15 am 11:15 Sunny 69 20.8 50 9.9 50 50 WSW 10 17 30.18 1022 10 16 0.00 0.00
11:35 am 11:35 Sunny 69 20.8 49 9.4 48 48 W 13 20 30.18 1022 10 16 0.00 0.00
11:55 am 11:55 Sunny 69 20.8 48 8.9 47 47 SW 8 13 30.18 1022 10 16 0.00 0.00
12:15 pm 12:15 Sunny 69 20.8 48 8.9 47 47 WSW 9 15 30.18 1022 10 16 0.00 0.00
12:35 pm 12:35 Sunny 71 21.7 48 8.8 44 44 WSW 8 13 30.18 1022 10 16 0.00 0.00
12:55 pm 12:55 Sunny 74 23.4 49 9.7 42 42 SW 10 17 30.18 1022 10 16 0.00 0.00
1:15 pm 13:15 Partly Cloudy 74 23.6 49 9.4 41 41 W 10 17 30.18 1022 10 16 0.00 0.00
1:35 pm 13:35 Partly Cloudy 74 23.6 47 8.6 38 38 W 10 17 30.18 1022 10 16 0.00 0.00
1:55 pm 13:55 Partly Cloudy 74 23.6 47 8.6 38 38 WSW 13 20 30.18 1022 10 16 0.00 0.00
2:15 pm 14:15 Partly Cloudy 74 23.6 46 7.7 36 36 WSW 15 24 30.18 1022 10 16 0.00 0.00
2:35 pm 14:35 Partly Cloudy 74 23.6 45 7.2 35 35 WSW 15 24 30.18 1022 10 16 0.00 0.00
2:55 pm 14:55 Partly Cloudy 74 23.6 45 7.4 35 35 WSW 16 26 30.18 1022 10 16 0.00 0.00
3:15 pm 15:15 Partly Cloudy 74 23.6 45 7.1 35 35 W 13 20 30.18 1022 10 16 0.00 0.00
3:35 pm 15:35 Partly Cloudy 77 25.1 46 7.9 33 33 W 14 22 30.18 1022 10 16 0.00 0.00
3:55 pm 15:55 Partly Cloudy 74 23.6 43 6 32 32 W 13 20 30.18 1022 10 16 0.00 0.00
4:15 pm 16:15 Partly Cloudy 77 25.1 43 6.2 30 30 W 8 13 30.18 1022 10 16 0.00 0.00
4:35 pm 16:35 Partly Cloudy 76 24.7 42 5.5 29 29 W 12 19 30.18 1022 10 16 0.00 0.00
4:55 pm 16:55 Mostly Cloudy 75 23.9 39 4.1 28 28 W 14 22 30.18 1022 10 16 0.00 0.00
5:15 pm 17:15 Partly Cloudy 74 23.6 41 4.9 30 30 WSW 9 15 30.18 1022 10 16 0.00 0.00
5:35 pm 17:35 Mostly Cloudy 74 23.6 42 5.7 32 32 W 12 19 30.18 1022 10 16 0.00 0.00
5:55 pm 17:55 Mostly Cloudy 76 24.3 39 3.7 26 26 W 12 19 30.18 1022 10 16 0.00 0.00
6:15 pm 18:15 Mostly Cloudy 74 23.6 39 3.9 28 28 WNW 10 17 30.18 1022 10 16 0.00 0.00
6:35 pm 18:35 Mostly Cloudy 75 23.9 37 2.7 25 25 NW 9 15 30.18 1022 10 16 0.00 0.00
6:55 pm 18:55 Mostly Cloudy 74 23.6 37 2.8 26 26 W 13 20 30.18 1022 10 16 0.00 0.00
7:15 pm 19:15 Partly Cloudy 74 23.6 42 5.4 31 31 WNW 7 11 30.18 1022 10 16 0.00 0.00
7:35 pm 19:35 Partly Cloudy 74 23.6 44 6.7 34 34 NNW 3 6 30.18 1022 10 16 0.00 0.00
7:55 pm 19:55 Partly Cloudy 71 21.6 43 6.1 37 37 NNW 3 6 30.21 1023 10 16 0.00 0.00
8:15 pm 20:15 Sunny 69 20.8 41 5.1 36 36 NW 5 7 30.21 1023 10 16 0.00 0.00
8:35 pm 20:35 Sunny 69 20.8 42 5.6 37 37 NNW 3 6 30.21 1023 10 16 0.00 0.00
8:55 pm 20:55 Clear 69 20.8 44 6.5 40 40 Calm 30.21 1023 10 16 0.00 0.00
9:15 pm 21:15 Clear 62 16.9 50 10.1 64 64 N 3 6 30.24 1024 10 16 0.00 0.00
9:35 pm 21:35 Clear 60 15.3 51 10.4 73 73 N 3 6 30.24 1024 10 16 0.00 0.00
9:55 pm 21:55 Clear 60 15.3 50 9.9 70 70 NNE 3 6 30.27 1025 10 16 0.00 0.00
10:15 pm 22:15 Clear 59 15.1 48 9.1 68 68 Calm 30.27 1025 10 16 0.00 0.00
10:35 pm 22:35 Clear 57 13.8 49 9.6 76 76 Calm 30.27 1025 10 16 0.00 0.00
10:55 pm 22:55 Clear 55 13 48 9.1 77 77 Calm 30.27 1025 10 16 0.00 0.00
11:15 pm 23:15 Clear 57 13.7 49 9.6 76 76 NE 3 6 30.30 1026 10 16 0.00 0.00
11:35 pm 23:35 Clear 57 13.8 49 9.3 74 74 NNE 3 6 30.30 1026 10 16 0.00 0.00
11:55 pm 23:55 Clear 55 12.5 47 8.1 75 75 Calm 30.30 1026 10 16 0.00 0.00

Powered by AerisWeather